CW5920 Weather Reports


time (UTC)temp
F
wind
direction
speed
knots
gust
knots
rain 1hr
in
rain 24hr
in
rain mn
in
humidity
%
barometer
mb
20240614123016 74 158 0.9 2.6 0.00 0.00 0.00 93 1015.3
20240614122016 73 158 2.6 5.2 0.00 0.00 0.00 93 1014.9
20240614121036 72 158 2.6 3.5 0.00 0.00 0.00 93 1014.8
20240614120016 72 158 3.5 5.2 0.00 0.00 0.00 93 1014.5
20240614115016 72 158 4.3 6.1 0.00 0.00 0.00 93 1014.6
20240614114016 71 158 2.6 4.3 0.00 0.00 0.00 93 1014.8
20240614113016 71 158 1.7 2.6 0.00 0.00 0.00 92 1014.7
20240614112016 71 0.0 0.0 0.00 0.00 0.00 92 1014.9
20240614111016 71 0.0 0.0 0.00 0.00 0.00 92 1014.9
20240614110016 72 0.0 0.0 0.00 0.00 0.00 92 1014.8
20240614105016 72 0.0 0.0 0.00 0.00 0.00 91 1014.7
20240614104016 72 0.0 0.0 0.00 0.00 0.00 91 1014.8
20240614103016 72 0.0 0.0 0.00 0.00 0.00 91 1014.5
20240614102016 72 0.0 0.0 0.00 0.00 0.00 90 1014.4
20240614101016 72 0.0 0.0 0.00 0.00 0.00 89 1014.3
20240614100016 73 0.0 0.9 0.00 0.00 0.00 89 1014.5
20240614095016 73 0.0 0.0 0.00 0.00 0.00 89 1014.7
20240614094016 73 0.0 0.0 0.00 0.00 0.00 89 1014.9
20240614093016 73 0.0 0.0 0.00 0.00 0.00 89 1015.0
20240614092016 74 158 0.9 2.6 0.00 0.00 0.00 89 1015.1
20240614091016 74 0.0 0.0 0.00 0.00 0.00 89 1015.0
20240614090016 74 0.0 0.0 0.00 0.00 0.00 89 1014.9
20240614085016 74 0.0 0.0 0.00 0.00 0.00 89 1014.8
20240614084016 74 0.0 0.0 0.00 0.00 0.00 89 1014.7
20240614083016 74 0.0 0.0 0.00 0.00 0.00 89 1014.5
20240614082016 74 158 0.9 1.7 0.00 0.00 0.00 88 1014.4
20240614081016 74 158 1.7 2.6 0.00 0.00 0.00 88 1014.1
20240614080016 74 158 1.7 2.6 0.00 0.00 0.00 88 1013.9
20240614075016 75 158 1.7 2.6 0.00 0.00 0.00 87 1014.0
20240614074016 75 158 1.7 2.6 0.00 0.00 0.00 87 1014.0
20240614073016 75 158 1.7 3.5 0.00 0.00 0.00 87 1014.1
20240614072016 75 158 1.7 3.5 0.00 0.00 0.00 87 1014.2
20240614071016 75 158 1.7 2.6 0.00 0.00 0.00 87 1014.3
20240614070017 75 158 1.7 3.5 0.00 0.00 0.00 87 1014.4
20240614065036 76 158 2.6 3.5 0.00 0.00 0.00 87 1014.4
20240614064016 76 158 2.6 3.5 0.00 0.00 0.00 86 1014.4
20240614063016 76 158 2.6 3.5 0.00 0.00 0.00 86 1014.5
20240614062016 76 135 2.6 3.5 0.00 0.00 0.00 86 1014.5
20240614061016 76 135 2.6 3.5 0.00 0.00 0.00 85 1014.6
20240614060016 76 135 1.7 2.6 0.00 0.00 0.00 85 1014.8
20240614055016 77 135 1.7 2.6 0.00 0.00 0.00 85 1014.8
20240614054016 77 135 2.6 3.5 0.00 0.00 0.00 85 1014.8
20240614053036 77 135 3.5 6.1 0.00 0.00 0.00 85 1014.7
20240614052016 77 135 3.5 4.3 0.00 0.00 0.00 85 1014.8
20240614051036 77 135 3.5 4.3 0.00 0.00 0.00 85 1014.9
20240614050036 77 135 2.6 4.3 0.00 0.00 0.00 84 1014.8
20240614045017 78 135 3.5 4.3 0.00 0.00 0.00 83 1014.6
20240614044017 78 135 2.6 4.3 0.00 0.00 0.00 83 1014.5
20240614043017 78 135 2.6 4.3 0.00 0.00 0.00 82 1014.2
20240614042017 79 135 3.5 4.3 0.00 0.00 0.00 81 1014.3
20240614041017 79 135 2.6 4.3 0.00 0.00 0.00 80 1014.3
20240614040017 80 135 2.6 3.5 0.00 0.00 0.00 78 1014.2
20240614035017 80 135 2.6 4.3 0.00 0.00 0.00 77 1013.9
20240614034017 81 135 2.6 4.3 0.00 0.00 0.00 76 1013.6
20240614033017 81 113 3.5 7.0 0.00 0.00 0.00 75 1013.3
20240614032017 82 180 1.7 2.6 0.00 0.00 0.00 73 1013.2
20240614031017 82 180 2.6 4.3 0.00 0.00 0.00 73 1013.0
20240614030037 82 180 2.6 5.2 0.00 0.00 0.00 73 1012.9
20240614025037 82 180 2.6 5.2 0.00 0.00 0.00 73 1012.6
20240614024037 83 158 4.3 6.1 0.00 0.00 0.00 73 1012.5
20240614023017 83 180 2.6 5.2 0.00 0.00 0.00 73 1012.4
20240614022017 84 180 2.6 4.3 0.00 0.00 0.00 72 1012.4
20240614021017 84 180 0.9 4.3 0.00 0.00 0.00 71 1012.4
20240614020017 85 0.0 0.0 0.00 0.00 0.00 70 1012.5
20240614015017 85 0.0 0.0 0.00 0.00 0.00 68 1012.5
20240614014017 86 0.0 0.0 0.00 0.00 0.00 68 1012.4
20240614013017 87 180 2.6 4.3 0.00 0.00 0.00 67 1012.3
20240614012017 87 180 2.6 4.3 0.00 0.00 0.00 66 1012.4
20240614011017 88 180 3.5 5.2 0.00 0.00 0.00 65 1012.3
20240614010017 88 180 2.6 4.3 0.00 0.00 0.00 64 1012.3
20240614005017 88 180 2.6 5.2 0.00 0.00 0.00 63 1012.6
20240614004017 88 135 3.5 5.2 0.00 0.00 0.00 62 1012.6
20240614003017 89 158 3.5 7.0 0.00 0.00 0.00 61 1012.6
20240614002037 89 180 3.5 6.1 0.00 0.00 0.00 61 1012.6
20240614001017 89 158 3.5 6.1 0.00 0.00 0.00 60 1012.6
20240614000017 90 180 2.6 6.1 0.00 0.00 0.00 60 1012.6
20240613235017 90 180 4.3 7.0 0.00 0.00 0.00 58 1012.6
20240613234017 90 180 2.6 3.5 0.00 0.00 0.00 57 1012.6
20240613233017 90 203 3.5 7.0 0.00 0.00 0.00 58 1012.6
20240613232017 91 135 0.9 3.5 0.00 0.00 0.00 56 1012.7
20240613231017 91 135 2.6 6.1 0.00 0.00 0.00 57 1012.8
20240613230017 91 180 4.3 7.0 0.00 0.00 0.00 54 1012.9
20240613225017 92 180 2.6 5.2 0.00 0.00 0.00 54 1013.0
20240613224017 92 158 2.6 6.1 0.00 0.00 0.00 54 1013.1
20240613223017 92 135 3.5 7.8 0.00 0.00 0.00 52 1013.2
20240613222017 92 180 3.5 7.8 0.00 0.00 0.00 53 1013.2
20240613221017 93 180 4.3 7.8 0.00 0.00 0.00 55 1013.4
20240613220017 93 158 4.3 7.8 0.00 0.00 0.00 54 1013.5
20240613215017 93 180 4.3 7.8 0.00 0.00 0.00 56 1013.6
20240613214017 93 180 0.9 3.5 0.00 0.00 0.00 54 1013.7
20240613213017 92 135 4.3 9.6 0.00 0.00 0.00 57 1013.7
20240613212017 92 113 2.6 7.0 0.00 0.00 0.00 56 1013.7
20240613211017 92 135 4.3 8.7 0.00 0.00 0.00 58 1013.8
20240613210017 92 135 4.3 8.7 0.00 0.00 0.00 56 1013.9
20240613205017 92 135 2.6 7.0 0.00 0.00 0.00 56 1014.0
20240613204017 92 158 4.3 7.8 0.00 0.00 0.00 58 1014.0
20240613203017 92 158 4.3 7.0 0.00 0.00 0.00 60 1014.2
20240613202017 93 180 5.2 8.7 0.00 0.00 0.00 55 1014.2
20240613201017 93 135 2.6 7.8 0.00 0.00 0.00 58 1014.2
20240613200017 92 158 3.5 8.7 0.00 0.00 0.00 55 1014.4
20240613195017 92 203 1.7 5.2 0.00 0.00 0.00 59 1014.5
20240613194017 91 135 2.6 7.8 0.00 0.00 0.00 62 1014.4
20240613193057 90 0.0 3.5 0.00 0.00 0.00 61 1014.5
20240613192017 91 180 3.5 5.2 0.00 0.00 0.00 62 1014.7
20240613191017 91 158 2.6 6.1 0.00 0.00 0.00 60 1014.8
20240613190017 90 180 2.6 7.0 0.00 0.00 0.00 62 1014.9
20240613185016 90 180 1.7 6.1 0.00 0.00 0.00 62 1014.9
20240613184017 90 180 0.9 4.3 0.00 0.00 0.00 60 1015.0
20240613183017 91 158 2.6 8.7 0.00 0.00 0.00 63 1015.1
20240613182017 91 203 2.6 7.0 0.00 0.00 0.00 62 1015.1
20240613181017 90 180 2.6 6.1 0.00 0.00 0.00 63 1015.3
20240613180016 90 135 4.3 7.8 0.00 0.00 0.00 66 1015.4
20240613175017 90 180 2.6 6.1 0.00 0.00 0.00 71 1015.4
20240613174016 88 203 1.7 6.1 0.00 0.00 0.00 70 1015.5
20240613173017 88 180 0.9 5.2 0.00 0.00 0.00 68 1015.4
20240613172017 88 203 0.9 4.3 0.00 0.00 0.00 69 1015.4
20240613171017 88 0.0 1.7 0.00 0.00 0.00 69 1015.5
20240613170037 88 203 3.5 7.8 0.00 0.00 0.00 68 1015.4
20240613165037 87 180 4.3 8.7 0.00 0.00 0.00 71 1015.4
20240613164017 86 0.0 3.5 0.00 0.00 0.00 71 1015.5
20240613163017 88 180 1.7 4.3 0.00 0.00 0.00 70 1015.5
20240613162017 87 0.0 3.5 0.00 0.00 0.00 71 1015.5
20240613161017 87 180 2.6 7.0 0.00 0.00 0.00 72 1015.5
20240613160017 86 180 3.5 7.0 0.00 0.00 0.00 73 1015.5
20240613155017 86 180 3.5 10.4 0.00 0.00 0.00 73 1015.5
20240613154017 85 180 2.6 7.8 0.00 0.00 0.00 75 1015.5
20240613153017 85 180 4.3 8.7 0.00 0.00 0.00 75 1015.5
20240613152037 85 158 5.2 8.7 0.00 0.00 0.00 77 1015.6
20240613151017 84 180 4.3 7.8 0.00 0.00 0.00 78 1015.6
20240613150016 84 158 4.3 10.4 0.00 0.00 0.00 79 1015.6
20240613145017 83 135 4.3 8.7 0.00 0.00 0.00 79 1015.5
20240613144017 83 180 4.3 7.8 0.00 0.00 0.00 80 1015.4
20240613143017 82 180 4.3 8.7 0.00 0.00 0.00 80 1015.5
20240613142037 81 158 5.2 9.6 0.00 0.00 0.00 80 1015.4
20240613141037 81 158 6.1 9.6 0.00 0.00 0.00 80 1015.2
20240613140017 80 158 7.0 10.4 0.00 0.00 0.00 80 1015.2
20240613135016 79 158 6.1 9.6 0.00 0.00 0.00 82 1015.1
20240613134016 78 158 7.0 10.4 0.00 0.00 0.00 83 1015.0
20240613133017 78 158 6.1 10.4 0.00 0.00 0.00 84 1014.8
20240613132016 77 135 6.1 8.7 0.00 0.00 0.00 86 1014.8
20240613131017 76 158 4.3 7.8 0.00 0.00 0.00 88 1014.8
20240613130016 75 158 5.2 9.6 0.00 0.00 0.00 89 1014.7
20240613125017 75 158 4.3 8.7 0.00 0.00 0.00 91 1014.6
20240613124036 74 158 4.3 7.0 0.00 0.00 0.00 92 1014.5